STARLINK-4188 (52843 NORAD) Tracking and Keplerian Element Data

This shows tracking and keplerian element data for the satellite.

Feedback or suggestion? Click here.




ElementValue
Catalog52843
NameSTARLINK-4188
Epoch Orbit1276
Epoch Day247.83334491
Epoch Year2022
RAAN28.5859
Inclination53.2188
Eccentricity0.0001612
Argument of Perigee45.5872
Mean Anonmoly263.2773
Mean Motion15.08840357
Decay Rate0.00013703
L11 52843U 22062P 22247.83334491 .00013703 00000+0 87737-3 0 9994
L22 52843 53.2188 28.5859 0001612 45.5872 263.2773 15.08840357 12766

Live tracking and technical data element details for STARLINK-4188 (NORAD 52843). STARLINK-4188 can be tracked NOW for your location showing map with azimuth and elevation plus other details from your city location.

Track the satellite on the map from your city or location and see movement details for azimuth, elevation, latitude, longitude, range, height, and movement on the map or in text.







IsCatalogInMostPopularTable: catalog: 52843, numindb: 6
Update: records affected: 1



GetName: 52843 STARLINK-4188

Hit Count: updated at: Sun, 25 Sep 2022 08:01:41 GMT